{"data":{"norad_id":52844,"epoch":"2026-09-20T15:11:32.985024Z","epoch_age_seconds":82555,"freshness":"FRESH","line1":"1 52844U 22062Q   26263.63302066  .00002821  00000+0  97006-4 0  9998","line2":"2 52844  53.1585 226.6103 0001309  65.9260 294.1880 15.33571896235384","mean_motion":15.33571896,"eccentricity":0.0001309,"inclination_deg":53.1585,"raan_deg":226.6103,"arg_perigee_deg":65.926,"mean_anomaly_deg":294.188,"bstar":9.7006e-5,"rev_number":23538,"period_min":93.89843435159,"perigee_km":464.26985897876,"apogee_km":466.06143561182,"semimajor_km":6843.3026472953,"source":"CELESTRAK","updated_at":"2026-09-21T09:00:32.697005Z"}}